DW9987 Weather Reports


Display with metric or nautical units.
time (UTC)temp
F
wind
direction
speed
MPH
gust
MPH
rain 1hr
in
rain 24hr
in
rain mn
in
humidity
%
barometer
mb
20260510163038 62 360 3.0 8.0 0.00 0.00 0.00 35 1019.7
20260510161528 60 48 5.0 10.0 0.00 0.00 0.00 36 1019.4
20260510160032 60 323 2.0 13.0 0.00 0.00 0.00 39 1019.3
20260510154526 60 11 3.0 7.0 0.00 0.00 0.00 35 1019.1
20260510153035 60 5 0.0 5.0 0.00 0.00 0.00 39 1019.1
20260510151527 59 5 1.0 6.0 0.00 0.00 0.00 40 1019.1
20260510150021 59 191 1.0 4.0 0.00 0.00 0.00 41 1019.2
20260510144517 58 275 0.0 5.0 0.00 0.00 0.00 40 1019.0
20260510143015 57 188 1.0 5.0 0.00 0.00 0.00 42 1019.1
20260510141514 56 211 1.0 6.0 0.00 0.00 0.00 39 1019.1
20260510140010 56 268 0.0 3.0 0.00 0.00 0.00 45 1018.9
20260510134506 54 167 0.0 5.0 0.00 0.00 0.00 49 1018.7
20260510133002 52 297 0.0 3.0 0.00 0.00 0.00 54 1018.6
20260510131557 49 281 0.0 2.0 0.00 0.00 0.00 63 1018.6
20260510130055 46 301 0.0 1.0 0.00 0.00 0.00 74 1018.5
20260510124555 44 300 0.0 0.0 0.00 0.00 0.00 81 1018.2
20260510123053 42 300 0.0 0.0 0.00 0.00 0.00 84 1018.2
20260510121549 41 300 0.0 0.0 0.00 0.00 0.00 84 1017.9
20260510120047 40 300 0.0 0.0 0.00 0.00 0.00 85 1017.6
20260510114557 39 300 0.0 0.0 0.00 0.00 0.00 85 1017.4
20260510113051 39 300 0.0 0.0 0.00 0.00 0.00 85 1017.1
20260510111543 39 300 0.0 0.0 0.00 0.00 0.00 84 1016.8
20260510110053 39 300 0.0 0.0 0.00 0.00 0.00 84 1016.7
20260510104539 39 300 0.0 0.0 0.00 0.00 0.00 83 1016.5
20260510103039 40 300 0.0 0.0 0.00 0.00 0.00 82 1016.1
20260510101532 40 300 0.0 0.0 0.00 0.00 0.00 81 1016.0
20260510100042 41 300 0.0 0.0 0.00 0.00 0.00 82 1016.0
20260510094537 41 300 0.0 0.0 0.00 0.00 0.00 83 1015.7
20260510093027 41 300 0.0 0.0 0.00 0.00 0.00 84 1015.4
20260510091526 42 300 0.0 0.0 0.00 0.00 0.00 86 1015.4
20260510090023 42 300 0.0 0.0 0.00 0.00 0.00 87 1015.2
20260510084522 42 300 0.0 0.0 0.00 0.00 0.00 88 1015.5
20260510083020 42 300 0.0 0.0 0.00 0.00 0.00 88 1015.3
20260510081524 42 300 0.0 0.0 0.00 0.00 0.00 86 1014.9
20260510080035 43 300 0.0 0.0 0.00 0.00 0.00 85 1014.6
20260510074511 43 300 0.0 0.0 0.00 0.00 0.00 85 1014.3
20260510073007 43 300 0.0 0.0 0.00 0.00 0.00 83 1013.8
20260510071503 44 300 0.0 0.0 0.00 0.00 0.00 82 1013.5
20260510070001 44 300 0.0 0.0 0.00 0.00 0.00 82 1013.3
20260510064559 45 300 0.0 0.0 0.00 0.00 0.00 82 1013.1
20260510063056 46 300 0.0 0.0 0.00 0.00 0.00 81 1013.0
20260510061554 46 300 0.0 0.0 0.00 0.00 0.00 78 1012.9
20260510060052 47 300 0.0 0.0 0.00 0.00 0.00 78 1012.8
20260510054549 47 300 0.0 0.0 0.00 0.00 0.00 74 1012.8
20260510053052 48 300 0.0 0.0 0.00 0.00 0.00 72 1012.6
20260510051549 48 300 0.0 0.0 0.00 0.00 0.00 70 1012.3
20260510050040 49 300 0.0 0.0 0.00 0.00 0.00 69 1012.1
20260510044537 49 300 0.0 0.0 0.00 0.00 0.00 67 1011.9
20260510043034 50 300 0.0 0.0 0.00 0.00 0.00 64 1011.7
20260510041531 52 300 0.0 0.0 0.00 0.00 0.00 62 1011.3
20260510040030 53 300 0.0 0.0 0.00 0.00 0.00 60 1011.2
20260510034527 54 300 0.0 0.0 0.00 0.00 0.00 58 1011.0
20260510033031 55 300 0.0 0.0 0.00 0.00 0.00 61 1010.7
20260510031527 56 355 0.0 1.0 0.00 0.00 0.00 60 1010.5
20260510030021 57 355 0.0 0.0 0.00 0.00 0.00 54 1010.2
20260510024521 58 355 0.0 0.0 0.00 0.00 0.00 51 1009.9
20260510023018 60 355 0.0 0.0 0.00 0.00 0.00 49 1009.6
20260510021536 61 355 0.0 0.0 0.00 0.00 0.00 47 1009.3
20260510020012 63 355 0.0 3.0 0.00 0.00 0.00 43 1008.8
20260510014517 64 360 2.0 8.0 0.00 0.00 0.00 41 1008.4
20260510013006 65 307 2.0 8.0 0.00 0.00 0.00 41 1008.0
20260510011504 66 351 0.0 4.0 0.00 0.00 0.00 39 1007.7
20260510004558 68 360 2.0 9.0 0.00 0.00 0.00 35 1007.0
20260510003100 69 360 3.0 9.0 0.00 0.00 0.00 34 1006.8
20260510001553 69 16 3.0 7.0 0.00 0.00 0.00 38 1006.4
20260510000052 70 339 0.0 13.0 0.00 0.00 0.00 41 1006.1
20260509234549 70 186 3.0 8.0 0.00 0.00 0.00 41 1005.8
20260509233049 70 90 2.0 7.0 0.00 0.00 0.00 40 1005.8
20260509231551 70 211 2.0 9.0 0.00 0.00 0.00 41 1005.6
20260509230051 71 293 2.0 11.0 0.00 0.00 0.00 40 1005.5
20260509224547 71 69 2.0 11.0 0.00 0.00 0.00 39 1005.4
20260509223048 71 167 4.0 9.0 0.00 0.00 0.00 39 1005.4
20260509221547 71 275 2.0 9.0 0.00 0.00 0.00 39 1005.2
20260509220048 71 360 4.0 11.0 0.00 0.00 0.00 38 1005.0
20260509214546 71 220 5.0 13.0 0.00 0.00 0.00 36 1004.9
20260509213053 71 19 6.0 14.0 0.00 0.00 0.00 35 1004.8
20260509211543 72 306 4.0 13.0 0.00 0.00 0.00 35 1004.7
20260509210048 72 298 6.0 14.0 0.00 0.00 0.00 34 1004.7
20260509204541 72 25 5.0 16.0 0.00 0.00 0.00 33 1004.4
20260509203041 72 63 5.0 11.0 0.00 0.00 0.00 32 1004.3
20260509201541 72 18 2.0 9.0 0.00 0.00 0.00 32 1004.3
20260509200042 72 360 3.0 10.0 0.00 0.00 0.00 31 1004.3
20260509194552 72 333 3.0 15.0 0.00 0.00 0.00 30 1004.4
20260509193040 73 105 4.0 17.0 0.00 0.00 0.00 29 1004.3
20260509191539 74 355 5.0 13.0 0.00 0.00 0.00 30 1004.3
20260509190040 75 306 3.0 10.0 0.00 0.00 0.00 30 1004.3
20260509184536 74 30 4.0 13.0 0.00 0.00 0.00 31 1004.2
20260509183036 73 5 4.0 13.0 0.00 0.00 0.00 29 1004.4
20260509181534 75 296 3.0 14.0 0.00 0.00 0.00 32 1004.2
20260509180047 74 330 6.0 14.0 0.00 0.00 0.00 31 1004.1
20260509174530 74 277 4.0 15.0 0.00 0.00 0.00 32 1004.2
20260509173032 73 318 7.0 15.0 0.00 0.00 0.00 34 1004.4
20260509171534 73 348 3.0 8.0 0.00 0.00 0.00 41 1004.3
20260509170025 72 165 2.0 12.0 0.00 0.00 0.00 43 1004.3
20260509164520 72 334 1.0 7.0 0.00 0.00 0.00 47 1004.2